Skip Page Navigation
NASA JPL Caltech
NASA Logo - Jet Propulsion Laboratory + View the NASA Portal
+ Center for Near-Earth Object Studies
JPL Home Earth Solar System Stars & Galaxies Technology
JPL Solar System Dynamics
BODIES ORBITS EPHEMERIDES TOOLS PHYSICAL DATA DISCOVERY FAQ SITE MAP
IMPORTANT: The SSD Announcement email list is now available. Major changes are coming in the near future, including possible hostname and/or URL changes. To be notified of such changes, subscribe to this email list.

Please visit this page for more details.


JPL Small-Body Database Browser
Search: [ help ]  
434237 (2003 SJ333)
Classification: Main-belt Asteroid          SPK-ID: 2434237
Ephemeris | Orbit Diagram | Orbital Elements | Mission Design | Physical Parameters | Discovery Circumstances ]

[ show orbit diagram ]
Orbital Elements at Epoch 2458600.5 (2019-Apr-27.0) TDB
Reference: JPL 8 (heliocentric ecliptic J2000)
 Element Value Uncertainty (1-sigma)   Units 
e .1480846101041565 7.3594e-08  
a 2.204308125908474 1.6999e-08 au
q 1.877884016533894 1.7174e-07 au
i 4.788033180292148 6.2462e-06 deg
node 195.4950393552911 6.81e-05 deg
peri 165.4361155186344 7.2583e-05 deg
M 286.9620566369736 2.1865e-05 deg
tp 2458843.022990154517
(2019-Dec-25.52299015)
7.3102e-05 TDB
period 1195.382460615995
3.27
1.3828e-05
3.786e-08
d
yr
n .3011588440192502 3.4837e-09 deg/d
Q 2.530732235283055 1.9516e-08 au
  Orbit Determination Parameters
   # obs. used (total)      101  
   data-arc span      5790 days (15.85 yr)  
   first obs. used      2003-09-21  
   last obs. used      2019-07-29  
   planetary ephem.      DE431  
   SB-pert. ephem.      SB431-N16  
   condition code      0  
   norm. resid. RMS      .5939  
   source      ORB  
   producer      Otto Matic  
   solution date      2019-Sep-24 07:35:06  

Additional Information
 Earth MOID = .874549 au 
 Jupiter MOID = 2.92083 au 
 T_jup = 3.643 
[ show covariance matrix ]

Ephemeris | Orbit Diagram | Orbital Elements | Mission Design | Physical Parameters | Discovery Circumstances ]

Physical Parameter Table
Parameter Symbol Value Units Sigma Reference Notes
absolute magnitude H 18.2   n/a MPO440801  

434237 (2003 SJ333)          Discovered 2003-Sep-21 by CINEOS at Campo Imperatore
Reference: Last Updated: 2015-06-04
Ephemeris | Orbit Diagram | Orbital Elements | Mission Design | Physical Parameters | Discovery Circumstances ]
ABOUT SSD CREDITS/AWARDS PRIVACY/COPYRIGHT GLOSSARY LINKS
FirstGov
(server date/time)  
NASA Home Page
Site Manager:   Ryan S. Park
Webmaster  Alan B. Chamberlin